• In Germany
  • List of Countries
  • For 7 days
  • Water Temperature
  • Satellite Maps
  • Weather Map
  • Weather Widgets
  • user-avatar
    Login

    Hourly Weather Korçe

    Today, 20 August, Sunday

    Time Temperature Precipitation Wind Pressure Humidity
    00:00 +19°C° 0 mm 1 mps 668 mmHg 55%
    01:00 +19°C° 0 mm 1 mps 668 mmHg 56%
    02:00 +19°C° 0 mm 1 mps 668 mmHg 56%
    03:00 +18°C° 0 mm 1 mps 667 mmHg 57%
    04:00 +18°C° 0 mm 1 mps 667 mmHg 58%
    05:00 +20°C° 0 mm 1 mps 668 mmHg 53%
    06:00 +22°C° 0 mm 1 mps 668 mmHg 49%
    07:00 +23°C° 0 mm 1 mps 669 mmHg 45%
    08:00 +25°C° 0 mm 1 mps 669 mmHg 40%
    09:00 +27°C° 0 mm 1 mps 669 mmHg 35%
    10:00 +29°C° 0 mm 1 mps 670 mmHg 29%
    11:00 +29°C° 0 mm 2 mps 669 mmHg 30%
    12:00 +29°C° 0 mm 2 mps 669 mmHg 30%
    13:00 +29°C° 0 mm 2 mps 669 mmHg 30%
    14:00 +28°C° 0 mm 2 mps 668 mmHg 32%
    15:00 +27°C° 0 mm 2 mps 668 mmHg 34%
    16:00 +26°C° 0 mm 2 mps 667 mmHg 37%
    17:00 +25°C° 0 mm 2 mps 667 mmHg 40%
    18:00 +23°C° 0 mm 1 mps 667 mmHg 44%
    19:00 +21°C° 0 mm 1 mps 666 mmHg 48%
    20:00 +20°C° 0 mm 1 mps 666 mmHg 50%
    21:00 +20°C° 0 mm 1 mps 666 mmHg 52%
    22:00 +19°C° 0 mm 1 mps 666 mmHg 54%
    23:00 +19°C° 0 mm 1 mps 666 mmHg 54%

    Tomorrow, 21 August, Monday

    Time Temperature Precipitation Wind Pressure Humidity
    00:00 +19°C° 0 mm 1 mps 666 mmHg 54%
    01:00 +18°C° 0 mm 1 mps 666 mmHg 54%
    02:00 +18°C° 0.1 mm 1 mps 666 mmHg 55%
    03:00 +18°C° 0.1 mm 1 mps 665 mmHg 56%
    04:00 +16°C° 0.1 mm 1 mps 665 mmHg 57%
    05:00 +17°C° 0.2 mm 2 mps 666 mmHg 60%
    06:00 +17°C° 0.2 mm 2 mps 666 mmHg 62%
    07:00 +17°C° 0.2 mm 2 mps 666 mmHg 64%
    08:00 +19°C° 0 mm 2 mps 667 mmHg 57%
    09:00 +21°C° 0 mm 2 mps 667 mmHg 51%
    10:00 +25°C° 0 mm 1 mps 668 mmHg 44%
    11:00 +26°C° 0 mm 2 mps 668 mmHg 41%
    12:00 +27°C° 0 mm 2 mps 668 mmHg 37%
    13:00 +28°C° 0 mm 2 mps 668 mmHg 34%
    14:00 +27°C° 0 mm 2 mps 667 mmHg 37%
    15:00 +26°C° 0 mm 3 mps 667 mmHg 41%
    16:00 +25°C° 0 mm 3 mps 667 mmHg 44%
    17:00 +23°C° 0.1 mm 2 mps 667 mmHg 50%
    18:00 +21°C° 0.1 mm 2 mps 666 mmHg 55%
    19:00 +19°C° 0.1 mm 2 mps 666 mmHg 61%
    20:00 +18°C° 0 mm 2 mps 666 mmHg 64%
    21:00 +17°C° 0 mm 2 mps 666 mmHg 67%
    22:00 +16°C° 0 mm 2 mps 667 mmHg 71%
    23:00 +16°C° 0 mm 2 mps 666 mmHg 71%

    Day after tomorrow, 22 August, Tuesday

    Time Temperature Precipitation Wind Pressure Humidity
    00:00 +15°C° 0 mm 2 mps 666 mmHg 71%
    01:00 +14°C° 0 mm 2 mps 666 mmHg 71%
    02:00 +14°C° 0 mm 2 mps 666 mmHg 70%
    03:00 +14°C° 0 mm 2 mps 666 mmHg 70%
    04:00 +13°C° 0 mm 2 mps 666 mmHg 70%
    05:00 +15°C° 0 mm 2 mps 667 mmHg 64%
    06:00 +16°C° 0 mm 2 mps 667 mmHg 58%
    07:00 +17°C° 0 mm 2 mps 668 mmHg 51%
    08:00 +19°C° 0 mm 2 mps 668 mmHg 46%
    09:00 +21°C° 0 mm 2 mps 669 mmHg 41%
    10:00 +24°C° 0 mm 2 mps 669 mmHg 36%
    11:00 +25°C° 0 mm 2 mps 669 mmHg 33%
    12:00 +26°C° 0 mm 2 mps 669 mmHg 30%
    13:00 +27°C° 0 mm 3 mps 669 mmHg 28%
    14:00 +26°C° 0 mm 3 mps 669 mmHg 28%
    15:00 +26°C° 0 mm 3 mps 669 mmHg 28%
    16:00 +26°C° 0 mm 3 mps 669 mmHg 28%
    17:00 +22°C° 0 mm 3 mps 668 mmHg 33%
    18:00 +20°C° 0 mm 2 mps 668 mmHg 38%
    19:00 +17°C° 0 mm 2 mps 667 mmHg 43%
    20:00 +17°C° 0 mm 2 mps 668 mmHg 44%
    21:00 +16°C° 0 mm 2 mps 668 mmHg 44%
    22:00 +15°C° 0 mm 2 mps 668 mmHg 44%
    23:00 +14°C° 0 mm 2 mps 668 mmHg 43%

    23 August, Wednesday

    Time Temperature Precipitation Wind Pressure Humidity
    00:00 +14°C° 0 mm 2 mps 668 mmHg 42%
    01:00 +14°C° 0 mm 2 mps 667 mmHg 41%
    02:00 +13°C° 0 mm 2 mps 667 mmHg 42%
    03:00 +13°C° 0 mm 2 mps 667 mmHg 42%
    04:00 +13°C° 0 mm 2 mps 667 mmHg 43%
    05:00 +14°C° 0 mm 2 mps 668 mmHg 41%
    06:00 +16°C° 0 mm 2 mps 669 mmHg 38%
    07:00 +18°C° 0 mm 2 mps 669 mmHg 36%
    08:00 +21°C° 0 mm 1 mps 670 mmHg 33%
    09:00 +24°C° 0 mm 1 mps 671 mmHg 30%
    10:00 +26°C° 0 mm 1 mps 671 mmHg 27%
    11:00 +27°C° 0 mm 1 mps 671 mmHg 27%
    12:00 +27°C° 0 mm 2 mps 671 mmHg 26%
    13:00 +28°C° 0 mm 2 mps 671 mmHg 25%
    14:00 +28°C° 0 mm 2 mps 671 mmHg 26%
    15:00 +27°C° 0 mm 3 mps 671 mmHg 27%
    16:00 +27°C° 0 mm 3 mps 671 mmHg 28%
    17:00 +24°C° 0 mm 2 mps 670 mmHg 34%
    18:00 +21°C° 0 mm 2 mps 670 mmHg 40%
    19:00 +19°C° 0 mm 1 mps 669 mmHg 45%
    20:00 +18°C° 0 mm 1 mps 670 mmHg 46%
    21:00 +18°C° 0 mm 1 mps 670 mmHg 47%
    22:00 +16°C° 0 mm 1 mps 670 mmHg 48%
    23:00 +16°C° 0 mm 1 mps 670 mmHg 48%

    24 August, Thursday

    Time Temperature Precipitation Wind Pressure Humidity
    00:00 +15°C° 0 mm 1 mps 670 mmHg 48%
    01:00 +15°C° 0 mm 1 mps 670 mmHg 47%
    02:00 +15°C° 0 mm 1 mps 669 mmHg 47%
    03:00 +14°C° 0 mm 2 mps 669 mmHg 47%
    04:00 +14°C° 0 mm 2 mps 669 mmHg 47%
    05:00 +16°C° 0 mm 2 mps 670 mmHg 43%
    06:00 +17°C° 0 mm 2 mps 671 mmHg 40%
    07:00 +19°C° 0 mm 2 mps 671 mmHg 37%
    08:00 +21°C° 0 mm 2 mps 672 mmHg 33%
    09:00 +24°C° 0 mm 2 mps 672 mmHg 28%
    10:00 +27°C° 0 mm 2 mps 673 mmHg 24%
    11:00 +27°C° 0 mm 2 mps 673 mmHg 23%
    12:00 +28°C° 0 mm 2 mps 673 mmHg 22%
    13:00 +29°C° 0 mm 2 mps 673 mmHg 21%
    14:00 +29°C° 0 mm 2 mps 673 mmHg 21%
    15:00 +28°C° 0 mm 2 mps 673 mmHg 22%
    16:00 +28°C° 0 mm 3 mps 672 mmHg 22%
    17:00 +25°C° 0 mm 2 mps 672 mmHg 28%
    18:00 +23°C° 0 mm 2 mps 671 mmHg 33%
    19:00 +20°C° 0 mm 1 mps 671 mmHg 38%
    20:00 +19°C° 0 mm 1 mps 671 mmHg 40%
    21:00 +18°C° 0 mm 2 mps 671 mmHg 41%
    22:00 +17°C° 0 mm 2 mps 671 mmHg 42%
    23:00 +16°C° 0 mm 2 mps 671 mmHg 43%

    25 August, Friday

    Time Temperature Precipitation Wind Pressure Humidity
    00:00 +16°C° 0 mm 2 mps 671 mmHg 44%
    01:00 +16°C° 0 mm 2 mps 671 mmHg 45%
    02:00 +15°C° 0 mm 2 mps 671 mmHg 46%
    03:00 +15°C° 0 mm 2 mps 671 mmHg 47%
    04:00 +15°C° 0 mm 2 mps 671 mmHg 48%
    05:00 +16°C° 0 mm 2 mps 671 mmHg 45%
    06:00 +18°C° 0 mm 2 mps 672 mmHg 43%
    07:00 +19°C° 0 mm 2 mps 672 mmHg 40%
    08:00 +23°C° 0 mm 2 mps 673 mmHg 35%
    09:00 +25°C° 0 mm 2 mps 673 mmHg 29%
    10:00 +27°C° 0 mm 2 mps 674 mmHg 24%
    11:00 +28°C° 0 mm 2 mps 674 mmHg 22%
    12:00 +29°C° 0 mm 2 mps 674 mmHg 20%
    13:00 +30°C° 0 mm 3 mps 674 mmHg 19%
    14:00 +29°C° 0 mm 3 mps 673 mmHg 20%
    15:00 +29°C° 0 mm 3 mps 673 mmHg 20%
    16:00 +29°C° 0 mm 3 mps 673 mmHg 21%
    17:00 +26°C° 0 mm 2 mps 672 mmHg 28%
    18:00 +23°C° 0 mm 2 mps 671 mmHg 34%
    19:00 +20°C° 0 mm 1 mps 671 mmHg 40%
    20:00 +19°C° 0 mm 1 mps 671 mmHg 42%
    21:00 +18°C° 0 mm 2 mps 671 mmHg 45%
    22:00 +17°C° 0 mm 2 mps 671 mmHg 47%
    23:00 +16°C° 0 mm 2 mps 670 mmHg 48%
    Show more